Flag for Canada Weather past 2 weeks in Laval, Quebec, Canada

Now
70 °F

Scattered clouds.


Feels Like: 70 °F
Forecast: 61 / 76 °F
Wind: 5 mph from Southeast

Location: Montreal / Mirabel

Current Time: Aug 22, 2014 at 8:25:05 PM

Latest Report: Aug 22, 2014 at 7:00 PM


Visibility: 45 mi

Pressure: 30.11 "Hg

Humidity: 73%

Dew point: 61 °F

Location of LavalLocation

Historic Weather in Laval — Graph

°F

Laval temperature yesterday

Maximum temperature yesterday: 73 °F (at 2:00 PM)
Minimum temperature yesterday: 64 °F (at 4:00 AM)
Average temperature yesterday: 68 °F

Past Weeks' High & Low Weather Summary

 TemperatureHumidityPressure
High84 °F (Aug 10, 4:00 PM)100% (Aug 8, 5:00 AM)30.16 "Hg (Aug 8, 5:00 AM)
Low48 °F (Aug 18, 5:00 AM)37% (Aug 8, 4:00 PM)29.67 "Hg (Aug 14, 12:00 AM)
Average65 °F77%29.95 "Hg
* Reported Aug 7 7:00 PM — Aug 22 7:00 PM, Laval, Weather by CustomWeather, © 2014

Note: Actual official high and low records may vary slightly from our data, if they occured in-between our weather recording intervals... More about our weather records

Advertising

Laval weather history for previous 24 hours

 ConditionsComfort  
Time TempWeatherWind HumidityBarometerVisibility
7:00 PM
Aug 22
70 °FScattered clouds.5 mph73%30.11 "Hg45 mi
6:00 PM72 °FBroken clouds.6 mph69%30.10 "Hg25 mi
5:00 PM73 °FBroken clouds.12 mph61%30.09 "Hg45 mi
4:00 PM72 °FPartly sunny.7 mph69%30.09 "Hg45 mi
3:00 PM73 °FPartly sunny.10 mph61%30.09 "Hg45 mi
2:00 PM73 °FBroken clouds.12 mph65%30.09 "Hg45 mi
1:00 PM73 °FPartly sunny.14 mph61%30.09 "Hg45 mi
12:00 PM70 °FPartly sunny.9 mph73%30.10 "Hg45 mi
11:00 AM68 °FOvercast.9 mph78%30.11 "Hg45 mi
10:00 AM66 °FPartly sunny.6 mph83%30.10 "Hg45 mi
9:00 AM64 °FPartly sunny.7 mph83%30.09 "Hg20 mi
8:00 AM63 °FPartly sunny.6 mph94%30.08 "Hg20 mi
7:00 AM61 °FPassing clouds.5 mph94%30.08 "Hg15 mi
6:00 AM61 °FPartly cloudy.3 mph94%30.07 "Hg25 mi
5:00 AM61 °FPartly cloudy.5 mph94%30.06 "Hg25 mi
4:00 AM61 °FPassing clouds.6 mph100%30.05 "Hg25 mi
3:00 AM63 °FPassing clouds.7 mph94%30.05 "Hg25 mi
2:00 AM64 °FPassing clouds.5 mph83%30.05 "Hg25 mi
1:00 AM64 °FPassing clouds.6 mph78%30.05 "Hg25 mi
12:00 AM64 °FPassing clouds.6 mph78%30.05 "Hg25 mi
11:00 PM
Aug 21
66 °FPassing clouds.8 mph73%30.06 "Hg25 mi
10:00 PM66 °FMostly cloudy.2 mph73%30.06 "Hg25 mi
9:00 PM66 °FPassing clouds.6 mph78%30.06 "Hg25 mi
8:00 PM68 °FPartly sunny.5 mph73%30.04 "Hg25 mi
Weather by CustomWeather, © 2014

See weather overviewHow to use our weather pages